Kekaha, HI

7:11 AM HST on December 10, 2016 (GMT -1000)
Barking Sands PMRF

Weather History for PHBK - March, 2014

Change the Weather History Date:

Sunday, March 23, 2014

  Actual Average Record
Temperature  
Mean Temperature 73 °F -  
Max Temperature 78 °F 81 °F 87 °F (1965)
Min Temperature 66 °F 62 °F 58 °F (1958)
Cooling Degree Days 8    
Growing Degree Days 23 (Base 50)    
Moisture  
Dew Point 59 °F    
Average Humidity 61    
Maximum Humidity 73    
Minimum Humidity 56    
Precipitation  
Precipitation 0.00 in - - ()
Sea Level Pressure  
Sea Level Pressure 30.10 in    
Wind  
Wind Speed 4 mph (ENE)    
Max Wind Speed 14 mph    
Max Gust Speed 20 mph    
Visibility 10 miles    
Events      
Averages and records for this station are not official NWS values.
T = Trace of Precipitation, MM = Missing Value Source: NWS Daily Summary

Daily Weather History Graph

Daily Weather History Graph

Search for Another Location

Airport or City:

Trip Planner

Search our weather history database for the weather conditions in past years. The results will help you decide how hot, cold, wet, or windy it might be!

Date:

Astronomy

Mar. 23, 2014 Rise Set
Actual Time 6:40 AM HST 6:51 PM HST
Civil Twilight 6:17 AM HST 7:13 PM HST
Nautical Twilight 5:51 AM HST 7:39 PM HST
Astronomical Twilight 5:25 AM HST 8:05 PM HST
Moon 12:45 AM HST (3/23) 12:06 PM HST (3/23)
Length of Visible Light 12h 55m
Length of Day
12h 11m
Waning Gibbous, 52% of the Moon is Illuminated
Mar 23
Waning Gibbous
Mar 23
Last Quarter
Mar 30
New
Apr 6
First Quarter
Apr 14
Full

Hourly Weather History & Observations

Time (HST) Temp. Dew Point Humidity Pressure Visibility Wind Dir Wind Speed Gust Speed Precip Events Conditions
12:56 AM - - N/A% 30.09 in 10.0 mi Calm Calm - N/A   Clear
1:56 AM - - N/A% 30.08 in 10.0 mi ENE 4.6 mph - N/A   Clear
2:56 AM - - N/A% 30.07 in 10.0 mi ENE 5.8 mph - N/A   Clear
3:56 AM - - N/A% 30.05 in 10.0 mi ENE 4.6 mph - N/A   Clear
4:56 AM - - N/A% 30.05 in 10.0 mi NE 5.8 mph - N/A   Clear
5:56 AM - - N/A% 30.07 in 10.0 mi East 4.6 mph - N/A   Clear
6:56 AM - - N/A% 30.09 in 10.0 mi East 3.5 mph - N/A   Clear
7:56 AM - - N/A% 30.11 in 10.0 mi ENE 3.5 mph - N/A   Clear
8:56 AM 72.0 °F 63.0 °F 73% 30.14 in 10.0 mi Calm Calm - N/A   Clear
9:56 AM 75.0 °F 62.1 °F 64% 30.13 in 10.0 mi NW 4.6 mph - N/A   Clear
10:56 AM 77.0 °F 61.0 °F 58% 30.12 in 10.0 mi Variable 4.6 mph - N/A   Partly Cloudy
11:56 AM 75.0 °F 60.1 °F 60% 30.12 in 10.0 mi Variable 6.9 mph - N/A   Scattered Clouds
12:56 PM 77.0 °F 61.0 °F 58% 30.09 in 10.0 mi North 13.8 mph 18.4 mph N/A   Mostly Cloudy
1:56 PM 77.0 °F 61.0 °F 58% 30.07 in 10.0 mi WNW 8.1 mph 19.6 mph N/A   Partly Cloudy
2:56 PM 78.1 °F 61.0 °F 56% 30.05 in 10.0 mi NNW 9.2 mph - N/A   Clear
3:56 PM 77.0 °F 60.1 °F 56% 30.05 in 10.0 mi WSW 4.6 mph - N/A   Clear
4:56 PM 77.0 °F 61.0 °F 58% 30.05 in 10.0 mi West 5.8 mph - N/A   Mostly Cloudy
5:56 PM 75.0 °F 61.0 °F 62% 30.07 in 10.0 mi South 4.6 mph - N/A   Mostly Cloudy
6:56 PM 73.9 °F 61.0 °F 64% 30.09 in 10.0 mi SW 3.5 mph - N/A   Mostly Cloudy
7:56 PM 73.9 °F 62.1 °F 66% 30.11 in 10.0 mi SSW 5.8 mph - N/A   Mostly Cloudy
8:56 PM 70.0 °F 60.1 °F 71% 30.13 in 10.0 mi ENE 3.5 mph - N/A   Partly Cloudy
9:56 PM 69.1 °F 54.0 °F 58% 30.14 in 10.0 mi ENE 8.1 mph - N/A   Clear
10:43 PM 69.8 °F 55.4 °F 60% 30.14 in 10.0 mi Calm Calm - N/A   Mostly Cloudy
10:56 PM 69.1 °F 54.0 °F 58% 30.15 in 10.0 mi ENE 5.8 mph - N/A   Mostly Cloudy
11:18 PM 68.0 °F 53.6 °F 60% 30.14 in 10.0 mi East 4.6 mph - N/A   Mostly Cloudy
11:25 PM 68.0 °F 53.6 °F 60% 30.14 in 10.0 mi ENE 3.5 mph - N/A   Scattered Clouds
11:56 PM 66.9 °F 51.1 °F 57% 30.14 in 10.0 mi East 5.8 mph - N/A   Clear